Whiteman AFB, MO

4:15 PM CST on December 10, 2019 (GMT -0600)
Whiteman Air Force Base

Weather History for KSZL - October, 2019

Change the Weather History Date:

Sunday, October 27, 2019

  Actual Average Record
Temperature  
Mean Temperature 53 °F -  
Max Temperature 67 °F 61 °F 82 °F (1999)
Min Temperature 39 °F 44 °F 26 °F (2012)
Degree Days  
Heating Degree Days 12    
Growing Degree Days 3 (Base 50)    
Moisture  
Dew Point 45 °F    
Average Humidity 82    
Maximum Humidity 100    
Minimum Humidity 44    
Precipitation  
Precipitation 0.00 in - - ()
Sea Level Pressure  
Sea Level Pressure 29.90 in    
Wind  
Wind Speed 6 mph (SSW)    
Max Wind Speed 12 mph    
Max Gust Speed -    
Visibility 10 miles    
Events      
Averages and records for this station are not official NWS values.
T = Trace of Precipitation, MM = Missing Value Source: NWS Daily Summary

Daily Weather History Graph

Daily Weather History Graph

Search for Another Location

Airport or City:

Astronomy

Oct. 27, 2019 Rise Set
Actual Time 7:35 AM CDT 6:20 PM CDT
Civil Twilight 7:08 AM CDT 6:47 PM CDT
Nautical Twilight 6:37 AM CDT 7:18 PM CDT
Astronomical Twilight 6:06 AM CDT 7:49 PM CDT
Moon 6:46 AM CDT (10/27) 6:29 PM CDT (10/27)
Length of Visible Light 11h 39m
Length of Day
10h 44m
Waning Crescent, 0% of the Moon is Illuminated
Oct 27
Waning Crescent
Oct 27
New
Nov 4
First Quarter
Nov 12
Full
Nov 19
Last Quarter

Hourly Weather History & Observations

Time (CDT) Temp. Windchill Dew Point Humidity Pressure Visibility Wind Dir Wind Speed Gust Speed Precip Events Conditions
12:56 AM 41.7 °F 37.3 °F 41.7 °F 100% 29.78 in 10.0 mi South 6.9 mph - N/A   Clear
1:56 AM 41.2 °F 36.6 °F 41.2 °F 100% 29.79 in 10.0 mi SSW 6.9 mph - N/A   Clear
2:56 AM 40.8 °F 36.9 °F 40.8 °F 100% 29.81 in 10.0 mi SSW 5.8 mph - N/A   Clear
3:56 AM 40.8 °F 36.9 °F 40.8 °F 100% 29.82 in 10.0 mi South 5.8 mph - N/A   Clear
4:56 AM 40.8 °F 38.8 °F 40.8 °F 100% 29.83 in 10.0 mi South 3.5 mph - N/A   Clear
5:56 AM 39.6 °F 35.4 °F 39.6 °F 100% 29.85 in 10.0 mi South 5.8 mph - N/A   Clear
6:56 AM 39.2 °F 35.0 °F 39.2 °F 100% 29.87 in 10.0 mi SSW 5.8 mph - N/A   Clear
7:56 AM 39.7 °F 36.5 °F 39.7 °F 100% 29.90 in 7.0 mi SSW 4.6 mph - N/A   Clear
8:56 AM 44.8 °F 42.4 °F 44.8 °F 100% 29.93 in 10.0 mi South 4.6 mph - N/A   Clear
9:56 AM 52.5 °F - 52.5 °F 100% 29.94 in 10.0 mi SW 6.9 mph - N/A   Clear
10:56 AM 55.0 °F - 51.8 °F 89% 29.95 in 10.0 mi Variable 3.5 mph - N/A   Clear
11:56 AM 59.9 °F - 51.6 °F 74% 29.94 in 10.0 mi Calm Calm - N/A   Clear
12:56 PM 63.7 °F - 49.5 °F 60% 29.93 in 10.0 mi SW 6.9 mph - N/A   Clear
1:56 PM 65.7 °F - 46.9 °F 51% 29.91 in 10.0 mi SSW 6.9 mph - N/A   Clear
2:56 PM 66.9 °F - 46.0 °F 47% 29.90 in 10.0 mi SSW 6.9 mph - N/A   Clear
3:56 PM 67.1 °F - 44.4 °F 44% 29.89 in 10.0 mi South 9.2 mph - N/A   Clear
4:56 PM 66.2 °F - 46.4 °F 49% 29.90 in 10.0 mi South 5.8 mph - N/A   Clear
5:56 PM 63.7 °F - 48.2 °F 57% 29.89 in 10.0 mi WSW 2.3 mph - N/A   Clear
7:56 PM 52.5 °F - 45.1 °F 76% 29.94 in 10.0 mi North 10.4 mph - N/A   Partly Cloudy
8:56 PM 49.5 °F - 45.1 °F 85% 29.95 in 10.0 mi North 10.4 mph - N/A   Partly Cloudy
9:56 PM 48.7 °F - 43.5 °F 82% 29.97 in 10.0 mi North 10.4 mph - N/A   Scattered Clouds
11:00 PM 48.0 °F - 42.8 °F 82% 30.00 in 10.0 mi North 11.5 mph - N/A   Mostly Cloudy
11:56 PM 46.9 °F - 42.1 °F 83% 30.01 in 10.0 mi NNW 9.2 mph - N/A   Overcast